Hourly Data Report for April 18, 2004

TORONTO CITY
ONTARIO

43°40'00.000" N
79°24'00.000" W
112.50 m
6158355
71508
XTO

Download Data

Hourly Data (April 2004)
Hourly Data Report for April 18, 2004
TIME
LST
Temp Definition
°C
Dew Point Definition
°C
Rel Hum Definition
%
Precip. Amount Definition
mm

Wind Dir Definition
10's deg

Wind Spd Definition
km/h
Visibility Definition
km
Stn Press Definition
kPa
Hmdx Definition


Wind Chill Definition


Weather Definition


00:00 12.3 10.0 86   LegendMM LegendMM LegendMM 101.11     LegendNANA
01:00 10.6 9.8 95   LegendMM LegendMM LegendMM 101.14     LegendNANA
02:00 10.4 9.6 95   LegendMM LegendMM LegendMM 101.10     LegendNANA
03:00 11.3 10.2 93   LegendMM LegendMM LegendMM 101.07     LegendNANA
04:00 11.0 9.8 92   LegendMM LegendMM LegendMM 101.07     LegendNANA
05:00 10.7 9.6 93   LegendMM LegendMM LegendMM 101.09     LegendNANA
06:00 9.9 9.0 94   LegendMM LegendMM LegendMM 101.09     LegendNANA
07:00 9.6 9.3 98   LegendMM LegendMM LegendMM 101.17     LegendNANA
08:00 8.4 8.0 97   LegendMM LegendMM LegendMM 101.01     LegendNANA
09:00 8.0 7.7 98   LegendMM LegendMM LegendMM 101.21     LegendNANA
10:00 9.0 8.7 98   LegendMM LegendMM LegendMM 101.37     LegendNANA
11:00 9.2 9.1 99   LegendMM LegendMM LegendMM 100.83     LegendNANA
12:00 10.2 9.8 97   LegendMM LegendMM LegendMM 100.88     LegendNANA
13:00 9.2 8.6 96   LegendMM LegendMM LegendMM 100.90     LegendNANA
14:00 9.4 9.1 98   LegendMM LegendMM LegendMM 100.76     LegendNANA
15:00 10.4 9.0 91   LegendMM LegendMM LegendMM 100.65     LegendNANA
16:00 10.3 8.9 91   LegendMM LegendMM LegendMM 100.48     LegendNANA
17:00 9.8 8.6 92   LegendMM LegendMM LegendMM 100.43     LegendNANA
18:00 10.0 8.8 92   LegendMM LegendMM LegendMM 100.34     LegendNANA
19:00 9.4 8.3 93   LegendMM LegendMM LegendMM 100.26     LegendNANA
20:00 8.7 7.6 93   LegendMM LegendMM LegendMM 100.22     LegendNANA
21:00 8.5 7.4 93   LegendMM LegendMM LegendMM 100.10     LegendNANA
22:00 8.3 7.2 93   LegendMM LegendMM LegendMM 99.99     LegendNANA
23:00 9.2 8.1 93   LegendMM LegendMM LegendMM 99.91     LegendNANA

Notes on Data Quality.

Legend

  • E = Estimated
  • M = Missing
  • NA = Not Available*
  • [empty] = Indicates an unobserved value
Date modified: